Regional Weather Roundup
Issued by NWS

Home | Current Version | Previous Version | Graphics & Text | Print | Product List | Glossary On
Versions: 1 2 3 4 5 6 7 8 9 10 11 12 13 14 15 16 17 18 19 20 21 22 23 24 25 26 27
000
ASUS45 KTFX 190510
RWRMT
MONTANA REGIONAL WEATHER ROUNDUP
NATIONAL WEATHER SERVICE GREAT FALLS MT
1100 PM MDT FRI AUG 18 2017

NOTE: "FAIR" INDICATES FEW OR NO CLOUDS BELOW 12000 FEET WITH NO
SIGNIFICANT WEATHER AND/OR OBSTRUCTIONS TO VISIBILITY.

MTZ001>007-043-190600-
WEST OF THE DIVIDE

CITY           SKY/WX    TMP DP  RH WIND       PRES   REMARKS
KALISPELL        N/A     66  37  34 S6        29.92S
MISSOULA         N/A     72  34  24 N5        29.97S
BUTTE          CLEAR     60  25  26 S6        30.11S
MULLAN PASS      N/A     58  31  35 VRB5      30.14F
ANACONDA         N/A     72  21  15 SW12      30.07S
DEER LODGE       N/A     68  30  24 S3        30.06S
EUREKA           N/A     68  37  32 MISG      29.89S
HAMILTON         N/A     70  36  28 S3        30.00S
LIBBY            N/A     63  36  36 CALM      29.90S
$$

MTZ008-052>055-190600-
SOUTHWEST MONTANA

CITY           SKY/WX    TMP DP  RH WIND       PRES   REMARKS
BOZEMAN        CLEAR     60  40  47 SE5       30.01R
DILLON         CLEAR     64  31  28 SW10      30.06S
W YELLOWSTONE  CLEAR     59  34  38 CALM      30.22S
ENNIS          CLOUDY    66  37  34 S10       30.13S
THREE FORKS      N/A     61  31  32 CALM      29.99S
TWIN BRIDGES     N/A     60  31  33 CALM      30.04R
$$

MTZ009-010-012-014-046-048-049-054-190600-
EAST SLOPES AND CENTRAL MONTANA

CITY           SKY/WX    TMP DP  RH WIND       PRES   REMARKS
CUT BANK         N/A     70  33  25 W15       29.87S
GREAT FALLS    CLOUDY    74  29  19 SW10      29.90R
MALMSTROM AFB  CLOUDY    75  30  19 SW7       29.88F
HELENA         CLOUDY    76  32  20 W8        29.97S HAZE
AUGUSTA        MOCLDY    67  31  26 SW10      29.94F
BOWMANS CRNR   MOCLDY    71  28  20 W16       29.94S
CHOTEAU          N/A     73  32  21 CALM      29.92F
FAIRFIELD      MOCLDY    71  34  26 S5        29.90S
POWER            N/A     69  30  23 W7        29.89F
RAYNESFORD       N/A     78  25  14 SW16      29.92F
ULM            MOCLDY    73  30  20 SW8       29.90F
$$

MTZ011-013-016-021-045-047-050-051-190600-
NORTH CENTRAL MONTANA

CITY           SKY/WX    TMP DP  RH WIND       PRES   REMARKS
HAVRE          CLOUDY    70  34  26 S8        29.78S
LEWISTOWN      PTCLDY    61  31  32 SE8       29.94S
N BAR RANCH    CLOUDY    66  27  22 W8        29.98S
CHINOOK          N/A     66  45  45 CALM      29.77S
DENTON           N/A     70  26  19 SW10      29.85F
GEYSER         CLOUDY    71  25  17 W16G22    29.91S
GRASS RANGE      N/A     63  30  28 W6        29.88F
JUDITH GAP       N/A     67  26  21 CALM      29.97F
WINIFRED       MOCLDY    73  24  16 SW7       29.88S
$$

MTZ017>020-022>027-061-062-190600-
NORTHEAST MONTANA

CITY           SKY/WX    TMP DP  RH WIND       PRES   REMARKS
GLASGOW        CLEAR     69  35  28 E13       29.78F
JORDAN           N/A     61  32  33 W3        29.82S
SIDNEY         CLEAR     69  51  52 CALM      29.83F
WOLF POINT     CLEAR     77  46  33 SE9       29.79F
MALTA          CLEAR     63  45  51 CALM      29.76F
PLENTYWOOD       N/A     66  46  48 CALM      29.82F
POPLAR           N/A     72  48  43 SE8       29.80F
$$

MTZ028>42-056>058-190600-
SOUTHCENTRAL AND SOUTHEAST MONTANA

CITY           SKY/WX    TMP DP  RH WIND       PRES   REMARKS
BAKER          CLEAR     61  42  49 SE8       29.90F
BILLINGS       CLEAR     74  33  22 SW8       29.91S
LIVINGSTON     CLEAR     64  31  28 NW12      30.00R
MILES CITY     CLEAR     74  35  24 SE8       29.83F
BIG TIMBER     CLEAR     64  28  25 NW8       30.00S
HARLOWTON        N/A     68  25  19 MISG      29.96S
LAUREL           N/A     72  30  21 SW3       29.92S
$$

REGIONAL REPORTS...DAKOTAS

CITY           SKY/WX    TMP DP  RH WIND       PRES   REMARKS
WILLISTON        N/A     70  53  54 SE6       29.85S
MINOT            N/A     66  53  63 SE6       29.85F
DICKINSON        N/A     63  53  70 SE9       29.90S
BEACH            N/A     63  46  55 SE9       29.92S
CROSBY           N/A     61  54  77 S8        29.83S
TIOGA            N/A     64  52  63 S13       29.88S
WATFORD CITY     N/A     66  52  59 SE9       29.86S
BISMARCK         N/A     64  55  72 SE3       29.91S
GRAND FORKS      N/A     61  58  90 SW5       29.84F
FARGO            N/A     64  61  90 S6        29.88S
BUFFALO SD       N/A     68  48  48 SE17      29.87F
RAPID CITY       N/A     66  47  50 S7        29.99S
$$

REGIONAL REPORTS...WYOMING/IDAHO/WASHINGTON

CITY           SKY/WX    TMP DP  RH WIND       PRES   REMARKS
GILLETTE         N/A     65  38  36 S6        30.00F
SHERIDAN         N/A     57  46  66 CALM      29.97S
BUFFALO WY       N/A     68  35  29 W9        30.05F
CODY             N/A     74  36  25 SW6       30.06S
YELLOWSTONE LA   N/A     46  37  71 CALM      30.32F
IDAHO FALLS    CLEAR     71  32  23 S9        30.09S
SALMON         CLOUDY    66  34  30 VRB5      30.02R
BOISE            N/A     73  27  18 S6        29.97S
SPOKANE          N/A     73  43  33 W14       29.95S
$$

REGIONAL REPORTS...ALBERTA

CITY           SKY/WX    TMP DP  RH WIND       PRES   REMARKS
EDMONTON       RAIN      50  50 100 W2        29.87F
CALGARY        MOCLDY    61  50  67 N23       29.85R SMOKE
LETHBRIDGE     CLEAR     70  36  28 SW15G23   29.76F
MEDICINE HAT   CLEAR     66  45  45 S9        29.69S
$$

REGIONAL REPORTS...SASKATCHEWAN

CITY           SKY/WX    TMP DP  RH WIND       PRES   REMARKS
SWIFT CURRENT  CLEAR     68  41  37 SW12      29.69F
SASKATOON      MOCLDY    68  50  52 E13G18    29.69F
$$




USA.gov is the U.S. government's official web portal to all federal, state and local government web resources and services.